Location: Puketoi
(40.5833°S, 176.0167°E)
Time: 12:51:36
(UTC+00:00)

Cosmos 1484 Rocket - Visible Passes

Search period start: 25 September 2023 00:00
Search period end: 05 October 2023 00:00
Orbit: 490 x 539 km, 97.5° (Epoch: 24 September)

Date Brightness Start Highest point End Pass type
(mag) Time Alt. Az. Time Alt. Az. Time Alt. Az.
25 Sep 4.9 15:55:07 17° SSW 15:55:07 17° SSW 15:56:06 10° SSW visible
26 Sep 4.7 15:39:32 22° S 15:39:32 22° S 15:40:58 10° S visible
27 Sep 4.7 15:23:55 24° SSE 15:23:55 24° SSE 15:25:43 10° S visible
28 Sep 5.0 15:08:18 23° SE 15:08:18 23° SE 15:10:21 10° S visible
28 Sep 4.9 16:43:15 12° SW 16:43:15 12° SW 16:43:42 10° SW visible
29 Sep 5.4 14:52:40 19° SE 14:52:40 19° SE 14:54:47 10° SSE visible
29 Sep 4.5 16:27:37 18° SW 16:27:37 18° SW 16:29:04 10° SW visible
30 Sep 5.8 14:37:00 14° ESE 14:37:00 14° ESE 14:38:56 10° SSE visible
30 Sep 3.9 16:11:58 28° SW 16:11:58 28° SW 16:14:11 10° SSW visible
01 Oct 3.3 15:56:19 44° SW 15:56:19 44° SW 15:59:08 10° SSW visible
02 Oct 3.1 15:40:37 61° S 15:40:37 61° S 15:43:57 10° S visible
03 Oct 3.6 15:24:56 49° ESE 15:24:56 49° ESE 15:28:39 10° S visible
03 Oct 4.8 16:59:53 11° W 16:59:53 11° W 17:00:22 10° WSW visible
04 Oct 4.4 15:09:14 31° E 15:09:42 32° ESE 15:13:13 10° S visible
04 Oct 4.3 16:44:11 17° W 16:44:11 17° W 16:46:24 10° SW visible
